sat.trackr.live / text

‹ back to catalog

SL-4 R/B

NORAD 68753 · 2026-083A

ROCKET_BODY ACTIVE UNKNOWN

§ Identity

Operator
Country
CIS
Launch date
2026-04-16
Launch site
PLMSC
Launch vehicle
Mass (kg)
RCS (m²)

External: N2YO · Heavens-Above · Gunter

§ Orbital elements

Epoch: 2026-05-25T03:44:41.441280Z

Period
94.59 min
Inclination
98.2702°
Eccentricity
0.0062487
Mean motion
15.22281848 rev/d
Perigee alt
456.0 km
Apogee alt
541.9 km
Semi-major
6,877.1 km
B*
1.5829e-4
RAAN
294.2121°
Arg perigee
308.7179°
Mean anomaly
50.8478°
Rev number
582

§ Raw data

SL-4 R/B1 68753U 26083A   26145.15603520  .00003752  00000+0  15829-3 0  99922 68753  98.2702 294.2121 0062487 308.7179  50.8478 15.22281848  5820

JSON: /api/v1/satellites/68753 · /tle

For live sub-satellite position, see the globe view (requires WebGL).

§ Visibility from observer

Set your observer location to see the next 7 days of passes ≥ 10°. The values pass through the URL so the page stays shareable.

No JS? Fill the form by hand. The geolocation button needs JavaScript.